This demonstration page uses our WeatherBlox Daily Observations layout. Learn more.

39.92423, -83.80882

Hourly Observations for April 15, 2015

Temp ( °F °C ) Dew Point ( °F °C ) Humidity (%) Winds ( mph kmh ) Pressure ( in mb ) Visibility ( mi km ) Precip ( " mm )
12:56 am 00:56 Clear 44 6.6 37 2.7 76 76 ENE 8 13 30.22 1023 7 11.26538 0 0
1:56 am 01:56 Clear 42 5.5 36 2.2 80 80 ENE 9 15 30.22 1023 7 11.26538 0 0
2:56 am 02:56 Clear 42 5.5 36 2.2 80 80 ENE 7 11 30.21 1023 7 11.26538 0 0
3:56 am 03:56 Clear 43 6.1 34 1.1 71 71 NE 9 15 30.21 1023 7 11.26538 0 0
4:56 am 04:56 Clear 43 6.1 31 -0.5 63 63 ENE 9 15 30.21 1023 7 11.26538 0 0
5:56 am 05:56 Clear 45 7.2 31 -0.5 58 58 E 9 15 30.2 1023 7 11.26538 0 0
6:56 am 06:56 Clear 44 6.6 31 -0.5 61 61 ENE 9 15 30.22 1023 7 11.26538 0 0
7:56 am 07:56 Hazy 47 8.3 31 -0.5 54 54 ENE 13 20 30.22 1023 6 9.65604 0 0
8:56 am 08:56 Hazy 51 10.5 32 0 49 49 E 15 24 30.24 1024 6 9.65604 0 0
9:56 am 09:56 Hazy 53 11.6 32 0 45 45 ENE 16 26 30.26 1025 6 9.65604 0 0
10:56 am 10:56 Hazy 57 13.8 32 0 39 39 ENE 22 35 30.26 1025 6 9.65604 0 0
11:56 am 11:56 Hazy 60 15.5 30 -1.1 32 32 E 22 35 30.26 1025 6 9.65604 0 0
12:56 pm 12:56 Hazy 64 17.7 27 -2.7 25 25 ENE 26 43 30.24 1024 6 9.65604 0 0
1:56 pm 13:56 Hazy 65 18.3 29 -1.6 26 26 E 23 37 30.24 1024 6 9.65604 0 0
2:56 pm 14:56 Hazy 67 19.4 29 -1.6 24 24 ENE 20 31 30.23 1024 6 9.65604 0 0
3:56 pm 15:56 Hazy 66 18.8 31 -0.5 27 27 E 17 28 30.21 1023 6 9.65604 0 0
4:56 pm 16:56 Hazy 65 18.3 29 -1.6 26 26 E 17 28 30.2 1023 6 9.65604 0 0
5:56 pm 17:56 Hazy 64 17.7 30 -1.1 28 28 E 16 26 30.2 1023 6 9.65604 0 0
6:56 pm 18:56 Hazy 63 17.2 31 -0.5 30 30 E 13 20 30.2 1023 6 9.65604 0 0
7:56 pm 19:56 Hazy 60 15.5 34 1.1 38 38 E 10 17 30.21 1023 6 9.65604 0 0
8:56 pm 20:56 Clear 59 15 34 1.1 39 39 E 10 17 30.21 1023 8 12.87472 0 0
9:56 pm 21:56 Cloudy 59 15 34 1.1 39 39 E 14 22 30.22 1023 7 11.26538 0 0
10:56 pm 22:56 Cloudy 59 15 32 0 36 36 ESE 16 26 30.22 1023 8 12.87472 0 0
11:56 pm 23:56 Partly Cloudy 56 13.3 33 0.5 42 42 E 8 13 30.22 1023 7 11.26538 0 0

Powered by AerisWeather